DELTA 1 DEB, 3051

Orbit data source: Space-Track

DELTA 1 DEB, 3051 is space debris in SSO originally from a launch on Fri, 10 Nov 1967 UTC launched from the Air Force Western Test Range (AFWTR). Debris objects in space refer to the collection of defunct objects orbiting the Earth. Examples of debris include non-operational satellites, rocket bodies, and fragments generated from explosions, collisions, or faulty payload assembly.

Loading next visibility...
Identifier
3051, 1967-114C
Orbit
SSO
Country
Flag of USUS
Related business
Manufacturer
Unknown
Mission
Spacecraft
Bus & Motor
Unknown
Mass
Unknown
Launch date (UTC)
1967-11-10 (58 years ago)
Launch vehicle
Unknown
Launch site
Air Force Western Test Range (AFWTR)
Object type
Payload
Rocket body
Debris
Shape & HBR
Unknown
Radar Cross Section
Small (<0.1 m²)

Expand to show TLE details & history
Last TLE update: 3 days ago

TLE from 3 days ago
0 DELTA 1 DEB
1 03051U 67114C   25258.42456743 -.00000011  00000-0  17675-3 0  9997
2 03051 101.1248 238.7677 0089247 311.4830 202.8360 12.62278710664595
Epoch: 2025-09-15T10:11Z
TLE epoch observation values (Epoch: 2025-09-15T10:11:22.625Z)
Latitude
25.5786°
Longitude
-83.33155°
Altitude
1,480.584 km
Speed
7.096 km/s
True Right ascension
04h 16m 34s
True Declination
25° 27' 26"
Sunlit
Object was in daylight at epoch
Visualization orbit readout
Latitude
Unknown
Longitude
Unknown
Altitude
Unknown
Speed
Unknown
Apparent Right ascension
Unknown
Apparent Declination
Unknown
Sunlit
N/A
Visualization observer readout
Local Sidereal Time
22:39:22
Azimuth
Unknown
Elevation
Unknown
Doppler factor
Unknown
Orbital elements
Apogee altitude
1,480.564 km
Perigee altitude
1,341.531 km
Semi-major axis
7,789.185 km
Eccentricity
0.00892
Inclination
101.1248°
RAAN
238.7677°
Arg. of periapsis
311.483°
True anomaly
202.44314°
Mean anomaly
202.836°
Eccentric anomaly
202.63917°
Mean motion
3.15722 °/min
Orbital period
114.02 mins
BSTAR
0.00017675
Loading maneuver chart data...
Computing Atmospheric mass density...
Loading historical data...
Loading historical data...
Loading historical data...
Loading historical data...
Loading historical data...
Loading historical data...
Loading historical data...
Other satellites on launch #114 in the year 1967 (1967-11-10 UTC)

Documentation

Showing up to 5 results
|